Simultaneous Nadir Overpasses (SNOs) Predictions

Prediction of SNOs between AQUA and METOP-B Satellite Orbit:

Table of predicted SNOs for the next 14.0 days since TLE Epoch: 6/3/2023
Index Date (AQUA) Time (AQUA) Lat,Lon (AQUA) SZA (AQUA ) Date (METOP-B) Time (METOP-B) Lat,Lon (METOP-B) SZA (METOP-B ) Distance(km) Time Diff (sec)
1 06/04/2023 22:17:41 74.49,-158.61 51.96 06/04/2023 22:16:30 74.48,-158.56 51.96 1.62 71
2 06/04/2023 23:07:05 -74.52, 8.98 128.02 06/04/2023 23:07:11 -74.52, 8.87 128.01 3.32 6
3 06/04/2023 23:56:35 74.74, 176.07 52.21 06/04/2023 23:57:46 74.75, 176.82 52.21 22.07 71
4 06/07/2023 16:10:25 74.49, -66.76 51.68 06/07/2023 16:09:30 74.51, -66.76 51.70 1.40 55
5 06/07/2023 16:59:50 -74.57, 100.71 128.25 06/07/2023 17:00:11 -74.55, 100.68 128.27 1.94 21
6 06/10/2023 10:03:08 74.54, 24.97 51.49 06/10/2023 10:02:29 74.52, 25.02 51.48 2.72 39
7 06/10/2023 10:52:32 -74.56,-167.43 128.49 06/10/2023 10:53:10 -74.57,-167.53 128.49 3.00 38
8 06/13/2023 03:55:50 74.53, 116.85 51.30 06/13/2023 03:55:29 74.52, 116.78 51.30 2.29 21
9 06/13/2023 04:45:15 -74.60, -75.67 128.63 06/13/2023 04:46:09 -74.62, -75.63 128.61 2.84 54
10 06/15/2023 20:59:05 -74.49, 41.17 128.88 06/15/2023 20:57:52 -74.40, 40.86 128.95 13.20 73
11 06/15/2023 21:48:32 74.57,-151.39 51.21 06/15/2023 21:48:28 74.57,-151.36 51.21 0.75 4



Historial Predications of SNOs between AQUA and METOP-B
